Flag for Burundi Weather past 2 weeks in Gitega, Burundi

Now
66 °F

Thunderstorms. Passing clouds.


Feels Like: 66 °F
Forecast: 57 / 75 °F
Wind: 8 mph from Southwest

Location: Kigali Airport

Current Time: Sep 30, 2014 at 7:19:26 PM

Latest Report: Sep 30, 2014 at 7:00 PM


Visibility: 5 mi

Pressure: 30.07 "Hg

Humidity: 94%

Dew point: 64 °F

Location of GitegaLocation

Historic Weather in Gitega — Graph

°F

Gitega temperature yesterday

Maximum temperature yesterday: 84 °F (at 12:30 PM)
Minimum temperature yesterday: 63 °F (at 5:00 AM)
Average temperature yesterday: 73 °F

Past Weeks' High & Low Weather Summary

 TemperatureHumidityPressure
High86 °F (Sep 18, 1:00 PM)100% (Sep 16, 4:30 AM)30.24 "Hg (Sep 16, 4:30 AM)
Low59 °F (Sep 21, 5:30 AM)40% (Sep 18, 4:00 PM)30.01 "Hg (Sep 17, 4:00 PM)
Average71 °F74%30.11 "Hg
* Reported Sep 15 6:00 PM — Sep 30 6:30 PM, Gitega, Weather by CustomWeather, © 2014

Note: Actual official high and low records may vary slightly from our data, if they occured in-between our weather recording intervals... More about our weather records

Advertising

Gitega weather history for previous 24 hours

 ConditionsComfort  
Time TempWeatherWind HumidityBarometerVisibility
6:30 PM
Sep 30
64 °FThunderstorms. Passing clouds.5 mph100%30.07 "Hg5 mi
6:00 PM66 °FThunderstorms. Passing clouds.14 mph100%30.07 "Hg4 mi
5:30 PM68 °FThunderstorms. Partly sunny.14 mph88%30.07 "HgN/A
5:00 PM68 °FThunderstorms. Partly sunny.16 mph88%30.04 "HgN/A
4:30 PM68 °FThunderstorms. Partly sunny.18 mph94%30.04 "Hg5 mi
4:00 PM81 °FThunderstorms. Partly sunny.16 mph54%30.01 "HgN/A
3:30 PM82 °FThunderstorms. Partly sunny.9 mph45%30.01 "HgN/A
3:00 PM82 °FScattered clouds.9 mph45%30.01 "HgN/A
2:30 PM84 °FScattered clouds.9 mph45%30.01 "HgN/A
2:00 PM86 °FPartly sunny.9 mph43%30.04 "HgN/A
1:00 PM84 °FScattered clouds.9 mph45%30.07 "HgN/A
12:30 PM79 °FPartly sunny.7 mph58%30.07 "HgN/A
12:00 PM79 °FPartly sunny.5 mph58%30.09 "HgN/A
11:30 AM77 °FPartly sunny.6 mph61%30.12 "HgN/A
11:00 AM79 °FSprinkles. Partly sunny.13 mph61%30.15 "HgN/A
10:30 AM79 °FScattered clouds.5 mph61%30.15 "HgN/A
10:00 AM77 °FPassing clouds.3 mph65%30.15 "HgN/A
9:30 AM77 °FPassing clouds.No wind65%30.15 "HgN/A
9:00 AM73 °FPassing clouds.No wind74%30.15 "HgN/A
8:30 AM70 °FPassing clouds.No wind83%30.15 "Hg5 mi
8:00 AM66 °FPassing clouds.No wind94%30.15 "Hg5 mi
7:30 AM66 °FPassing clouds.3 mph94%30.15 "HgN/A
7:00 AM64 °FPassing clouds.No wind100%30.12 "HgN/A
6:00 AM61 °FPassing clouds.6 mph100%30.12 "HgN/A
5:00 AM63 °FPassing clouds.No wind100%30.09 "HgN/A
4:00 AM63 °FPassing clouds.6 mph100%30.09 "HgN/A
3:00 AM63 °FPassing clouds.No wind100%30.09 "HgN/A
2:30 AM63 °FPassing clouds.No wind100%30.09 "HgN/A
2:00 AM64 °FPassing clouds.No wind100%30.09 "HgN/A
1:30 AM64 °FPassing clouds.No wind100%30.09 "HgN/A
1:00 AM64 °FPassing clouds.No wind100%30.12 "HgN/A
12:30 AM66 °FPassing clouds.No wind94%30.12 "HgN/A
12:00 AM66 °FPassing clouds.3 mph94%30.12 "HgN/A
11:30 PM
Sep 29
68 °FPassing clouds.No wind88%30.15 "HgN/A
11:00 PM68 °FPassing clouds.No wind88%30.15 "HgN/A
10:00 PM72 °FPassing clouds.6 mph73%30.15 "HgN/A
9:30 PM72 °FPassing clouds.3 mph73%30.15 "HgN/A
9:00 PM72 °FPassing clouds.No wind78%30.12 "HgN/A
8:30 PM72 °FPassing clouds.No wind73%30.12 "HgN/A
8:00 PM72 °FPassing clouds.No wind73%30.09 "HgN/A
7:30 PM72 °FPassing clouds.5 mph73%30.09 "HgN/A
7:00 PM72 °FPassing clouds.3 mph73%30.07 "HgN/A
Weather by CustomWeather, © 2014

See weather overviewHow to use our weather pages